TimeCDT,TemperatureF,Dew PointF,Humidity,Sea Level PressureIn,VisibilityMPH,Wind Direction,Wind SpeedMPH,Gust SpeedMPH,PrecipitationIn,Events,Conditions,WindDirDegrees,DateUTC
12:15 AM,35.6,35.6,100,30.25,10.0,North,6.9,-,N/A,,Clear,360,2012-10-06 05:15:00
12:35 AM,37.4,35.6,93,30.25,10.0,North,6.9,-,N/A,,Clear,10,2012-10-06 05:35:00
12:55 AM,37.4,35.6,93,30.25,10.0,North,6.9,-,N/A,,Clear,360,2012-10-06 05:55:00
1:15 AM,37.4,35.6,93,30.23,10.0,North,6.9,-,N/A,,Clear,10,2012-10-06 06:15:00
1:55 AM,37.4,33.8,87,30.25,10.0,North,9.2,-,N/A,,Clear,10,2012-10-06 06:55:00
2:15 AM,37.4,33.8,87,30.25,10.0,North,10.4,-,N/A,,Clear,10,2012-10-06 07:15:00
2:35 AM,37.4,33.8,87,30.26,10.0,North,8.1,-,N/A,,Clear,10,2012-10-06 07:35:00
2:55 AM,35.6,33.8,93,30.25,10.0,North,8.1,-,N/A,,Clear,10,2012-10-06 07:55:00
3:15 AM,35.6,33.8,93,30.25,10.0,North,8.1,-,N/A,,Clear,10,2012-10-06 08:15:00
3:35 AM,35.6,33.8,93,30.25,10.0,North,8.1,-,N/A,,Clear,10,2012-10-06 08:35:00
3:55 AM,35.6,33.8,93,30.25,10.0,NNE,3.5,-,N/A,,Clear,20,2012-10-06 08:55:00
4:15 AM,35.6,33.8,93,30.25,10.0,North,6.9,-,N/A,,Clear,360,2012-10-06 09:15:00
4:35 AM,35.6,33.8,93,30.25,10.0,NNE,4.6,-,N/A,,Clear,20,2012-10-06 09:35:00
4:55 AM,35.6,33.8,93,30.25,10.0,North,4.6,-,N/A,,Clear,10,2012-10-06 09:55:00
5:15 AM,35.6,33.8,93,30.25,10.0,North,5.8,-,N/A,,Clear,10,2012-10-06 10:15:00
5:35 AM,35.6,33.8,93,30.25,10.0,North,5.8,-,N/A,,Clear,10,2012-10-06 10:35:00
5:55 AM,37.4,33.8,87,30.25,10.0,NE,4.6,-,N/A,,Scattered Clouds,40,2012-10-06 10:55:00
6:15 AM,37.4,33.8,87,30.23,10.0,NE,4.6,-,N/A,,Mostly Cloudy,50,2012-10-06 11:15:00
6:55 AM,37.4,35.6,93,30.23,10.0,ENE,4.6,-,N/A,,Scattered Clouds,70,2012-10-06 11:55:00
7:15 AM,37.4,33.8,87,30.25,10.0,NE,4.6,-,N/A,,Scattered Clouds,50,2012-10-06 12:15:00
7:35 AM,37.4,33.8,87,30.24,10.0,NE,4.6,-,N/A,,Scattered Clouds,50,2012-10-06 12:35:00
7:55 AM,37.4,33.8,87,30.26,10.0,NNE,3.5,-,N/A,,Mostly Cloudy,20,2012-10-06 12:55:00
8:15 AM,39.2,35.6,87,30.26,10.0,NE,4.6,-,N/A,,Mostly Cloudy,50,2012-10-06 13:15:00
8:35 AM,39.2,33.8,81,30.25,10.0,NE,6.9,-,N/A,,Scattered Clouds,40,2012-10-06 13:35:00
8:55 AM,41.0,35.6,81,30.27,10.0,NE,4.6,-,N/A,,Scattered Clouds,40,2012-10-06 13:55:00
9:15 AM,41.0,33.8,76,30.26,10.0,NE,4.6,-,N/A,,Scattered Clouds,50,2012-10-06 14:15:00
9:35 AM,41.0,33.8,76,30.28,10.0,North,6.9,-,N/A,,Mostly Cloudy,10,2012-10-06 14:35:00
9:55 AM,41.0,33.8,76,30.29,10.0,NNE,4.6,-,N/A,,Overcast,20,2012-10-06 14:55:00
10:15 AM,41.0,33.8,76,30.29,10.0,North,3.5,-,N/A,,Overcast,10,2012-10-06 15:15:00
10:35 AM,42.8,33.8,70,30.30,10.0,North,4.6,-,N/A,,Overcast,360,2012-10-06 15:35:00
10:55 AM,42.8,35.6,76,30.30,10.0,North,6.9,-,N/A,,Overcast,360,2012-10-06 15:55:00
11:15 AM,42.8,33.8,70,30.30,10.0,North,5.8,-,N/A,,Overcast,10,2012-10-06 16:15:00
11:35 AM,42.8,33.8,70,30.29,10.0,Calm,Calm,-,N/A,,Overcast,0,2012-10-06 16:35:00
11:55 AM,42.8,33.8,70,30.28,10.0,NNE,4.6,-,N/A,,Overcast,20,2012-10-06 16:55:00
12:15 PM,44.6,33.8,66,30.28,10.0,North,6.9,-,N/A,,Overcast,350,2012-10-06 17:15:00
12:35 PM,44.6,33.8,66,30.29,10.0,North,8.1,-,N/A,,Overcast,350,2012-10-06 17:35:00
12:55 PM,44.6,33.8,66,30.29,10.0,NNE,4.6,-,N/A,,Overcast,20,2012-10-06 17:55:00
1:15 PM,44.6,33.8,66,30.30,10.0,North,6.9,-,N/A,,Overcast,360,2012-10-06 18:15:00
1:35 PM,44.6,35.6,71,30.28,10.0,NNW,8.1,-,N/A,,Overcast,330,2012-10-06 18:35:00
1:55 PM,44.6,33.8,66,30.28,10.0,North,8.1,-,N/A,,Overcast,350,2012-10-06 18:55:00
2:15 PM,44.6,35.6,71,30.26,10.0,North,5.8,-,N/A,,Overcast,360,2012-10-06 19:15:00
2:35 PM,44.6,33.8,66,30.25,10.0,North,8.1,-,N/A,,Overcast,10,2012-10-06 19:35:00
2:55 PM,44.6,33.8,66,30.25,10.0,North,9.2,-,N/A,,Overcast,10,2012-10-06 19:55:00
3:15 PM,44.6,33.8,66,30.23,10.0,North,8.1,-,N/A,,Overcast,360,2012-10-06 20:15:00
3:35 PM,44.6,32.0,61,30.24,10.0,North,11.5,16.1,N/A,,Overcast,350,2012-10-06 20:35:00
3:55 PM,44.6,32.0,61,30.23,10.0,North,10.4,-,N/A,,Overcast,360,2012-10-06 20:55:00
4:15 PM,44.6,32.0,61,30.24,10.0,North,13.8,17.3,N/A,,Overcast,360,2012-10-06 21:15:00
4:35 PM,42.8,32.0,66,30.25,10.0,North,6.9,-,N/A,Rain,Light Rain,360,2012-10-06 21:35:00
4:55 PM,41.0,30.2,65,30.25,10.0,East,9.2,12.7,N/A,,Drizzle,80,2012-10-06 21:55:00
5:15 PM,41.0,32.0,70,30.25,10.0,East,4.6,-,N/A,,Overcast,100,2012-10-06 22:15:00
5:35 PM,41.0,32.0,70,30.25,10.0,Calm,Calm,-,N/A,,Overcast,0,2012-10-06 22:35:00
6:15 PM,42.8,32.0,66,30.23,10.0,North,6.9,-,N/A,,Overcast,10,2012-10-06 23:15:00
6:35 PM,41.0,32.0,70,30.25,10.0,North,4.6,-,N/A,,Overcast,10,2012-10-06 23:35:00
6:55 PM,41.0,32.0,70,30.25,10.0,Calm,Calm,-,N/A,,Overcast,0,2012-10-06 23:55:00
7:15 PM,39.2,35.6,87,30.26,10.0,Calm,Calm,-,N/A,,Overcast,0,2012-10-07 00:15:00
7:35 PM,39.2,35.6,87,30.26,10.0,NNE,5.8,-,N/A,,Overcast,20,2012-10-07 00:35:00
7:55 PM,41.0,32.0,70,30.27,10.0,North,4.6,-,N/A,,Overcast,360,2012-10-07 00:55:00
8:15 PM,41.0,33.8,76,30.28,10.0,NNW,3.5,-,N/A,,Overcast,340,2012-10-07 01:15:00
8:35 PM,41.0,32.0,70,30.28,10.0,NNW,3.5,-,N/A,,Overcast,330,2012-10-07 01:35:00
8:55 PM,41.0,33.8,76,30.28,10.0,NNW,3.5,-,N/A,,Overcast,340,2012-10-07 01:55:00
9:15 PM,41.0,33.8,76,30.28,10.0,NNW,3.5,-,N/A,,Overcast,340,2012-10-07 02:15:00
9:35 PM,41.0,33.8,76,30.28,10.0,NNW,3.5,-,N/A,,Overcast,330,2012-10-07 02:35:00
9:55 PM,41.0,33.8,76,30.28,10.0,NNW,3.5,-,N/A,,Overcast,340,2012-10-07 02:55:00
10:15 PM,41.0,33.8,76,30.28,10.0,NNW,3.5,-,N/A,,Overcast,340,2012-10-07 03:15:00
10:35 PM,41.0,33.8,76,30.27,10.0,NNW,3.5,-,N/A,,Overcast,340,2012-10-07 03:35:00
10:55 PM,41.0,33.8,76,30.27,10.0,NNW,5.8,-,N/A,,Overcast,340,2012-10-07 03:55:00
11:15 PM,41.0,32.0,70,30.28,10.0,NNW,8.1,-,N/A,,Overcast,340,2012-10-07 04:15:00
11:35 PM,39.2,32.0,75,30.28,10.0,NNW,6.9,-,N/A,,Overcast,340,2012-10-07 04:35:00
11:55 PM,37.4,32.0,81,30.28,10.0,North,4.6,-,N/A,,Overcast,350,2012-10-07 04:55:00